JAL651 RJTT-RJFK

Flight info

Callsign JAL651
Flight time 1h 34m
Altitude 38000
Route LAXAS Y56 TOHME Y54 TURFY Y24 SUC Y757 SPICA
Aircraft B738/M-SDE2E3FGHIRWXY/LB1

Departure

Time 2026-05-05 07:42
Airport Tokyo Haneda International Airport (RJTT)

Arrival

Time 2026-05-05 09:16
Airport Kagoshima Airport (RJFK)
Time Latitude Longitude Altitude Speed Heading
2026-05-05 07:05 35.54487 139.78469 27 ft 0 kts 61°
2026-05-05 07:29 35.54485 139.78465 28 ft 2 kts 60°
2026-05-05 07:30 35.54476 139.78447 27 ft 2 kts 57°
2026-05-05 07:30 35.54456 139.78415 26 ft 2 kts 44°
2026-05-05 07:30 35.54443 139.78403 27 ft 2 kts 21°
2026-05-05 07:31 35.54427 139.78401 27 ft 2 kts 339°
2026-05-05 07:31 35.54421 139.78405 27 ft 0 kts 332°
2026-05-05 07:32 35.54422 139.78404 27 ft 0 kts 332°
2026-05-05 07:32 35.54437 139.78394 28 ft 5 kts 331°
2026-05-05 07:33 35.54489 139.78357 26 ft 12 kts 333°
2026-05-05 07:33 35.54581 139.78294 25 ft 18 kts 330°
2026-05-05 07:33 35.54695 139.78212 25 ft 19 kts 329°
2026-05-05 07:33 35.54808 139.78134 26 ft 18 kts 331°
2026-05-05 07:34 35.54919 139.78060 24 ft 18 kts 332°
2026-05-05 07:34 35.55022 139.77986 25 ft 17 kts 328°
2026-05-05 07:34 35.55122 139.77912 25 ft 16 kts 330°
2026-05-05 07:34 35.55219 139.77842 24 ft 16 kts 329°
2026-05-05 07:35 35.55312 139.77775 26 ft 15 kts 333°
2026-05-05 07:35 35.55402 139.77711 24 ft 15 kts 329°
2026-05-05 07:35 35.55489 139.77651 24 ft 14 kts 329°
2026-05-05 07:35 35.55571 139.77592 25 ft 13 kts 331°
2026-05-05 07:36 35.55650 139.77537 25 ft 13 kts 330°
2026-05-05 07:36 35.55726 139.77482 23 ft 13 kts 329°
2026-05-05 07:36 35.55802 139.77431 22 ft 12 kts 330°
2026-05-05 07:36 35.55874 139.77380 22 ft 12 kts 330°
2026-05-05 07:37 35.55951 139.77365 22 ft 12 kts 28°
2026-05-05 07:37 35.56023 139.77406 22 ft 11 kts 13°
2026-05-05 07:37 35.56100 139.77423 24 ft 11 kts 22°
2026-05-05 07:37 35.56165 139.77474 23 ft 11 kts 36°
2026-05-05 07:38 35.56225 139.77529 23 ft 11 kts 37°
2026-05-05 07:38 35.56282 139.77584 23 ft 10 kts 39°
2026-05-05 07:38 35.56334 139.77642 23 ft 10 kts 54°
2026-05-05 07:38 35.56370 139.77714 23 ft 10 kts 61°
2026-05-05 07:39 35.56402 139.77786 23 ft 9 kts 61°
2026-05-05 07:39 35.56434 139.77855 22 ft 9 kts 60°
2026-05-05 07:39 35.56466 139.77922 23 ft 9 kts 59°
2026-05-05 07:39 35.56498 139.77987 22 ft 9 kts 57°
2026-05-05 07:40 35.56550 139.77997 22 ft 9 kts 310°
2026-05-05 07:40 35.56589 139.77942 22 ft 8 kts 319°
2026-05-05 07:40 35.56629 139.77891 22 ft 8 kts 304°
2026-05-05 07:40 35.56660 139.77833 23 ft 8 kts 303°
2026-05-05 07:41 35.56690 139.77777 24 ft 8 kts 304°
2026-05-05 07:41 35.56711 139.77718 24 ft 8 kts 272°
2026-05-05 07:41 35.56685 139.77658 24 ft 19 kts 215°
2026-05-05 07:41 35.56292 139.77321 24 ft 116 kts 215°
2026-05-05 07:42 35.55751 139.76860 47 ft 168 kts 214°
2026-05-05 07:42 35.54372 139.75592 1096 ft 195 kts 215°
2026-05-05 07:42 35.53111 139.74928 1980 ft 214 kts 182°
2026-05-05 07:42 35.51546 139.75256 2492 ft 240 kts 168°
2026-05-05 07:43 35.49894 139.75597 3450 ft 245 kts 173°
2026-05-05 07:43 35.48741 139.75756 4089 ft 248 kts 175°
2026-05-05 07:43 35.47037 139.75936 5121 ft 250 kts 176°
2026-05-05 07:43 35.45240 139.76093 5803 ft 265 kts 178°
2026-05-05 07:44 35.43370 139.76193 6623 ft 274 kts 181°
2026-05-05 07:44 35.41438 139.76190 7450 ft 280 kts 183°
2026-05-05 07:44 35.39464 139.76179 8295 ft 286 kts 182°
2026-05-05 07:44 35.37448 139.76174 9142 ft 293 kts 183°
2026-05-05 07:45 35.35414 139.76191 9973 ft 299 kts 180°
2026-05-05 07:45 35.33327 139.76687 10581 ft 316 kts 166°
2026-05-05 07:45 35.31129 139.77523 10804 ft 343 kts 164°
2026-05-05 07:45 35.28767 139.78424 10979 ft 368 kts 165°
2026-05-05 07:46 35.26237 139.79348 11148 ft 390 kts 165°
2026-05-05 07:46 35.23546 139.80118 11541 ft 400 kts 177°
2026-05-05 07:46 35.20798 139.79727 12199 ft 397 kts 200°
2026-05-05 07:46 35.18349 139.78281 12889 ft 396 kts 217°
2026-05-05 07:47 35.16337 139.75997 13527 ft 396 kts 230°
2026-05-05 07:47 35.14495 139.73469 14140 ft 400 kts 231°
2026-05-05 07:47 35.12628 139.70908 14692 ft 404 kts 230°
2026-05-05 07:47 35.10851 139.68252 15158 ft 404 kts 240°
2026-05-05 07:48 35.09813 139.65117 15208 ft 397 kts 259°
2026-05-05 07:48 35.09297 139.61791 15224 ft 400 kts 261°
2026-05-05 07:48 35.08797 139.58461 15218 ft 398 kts 261°
2026-05-05 07:48 35.08276 139.55146 15221 ft 398 kts 260°
2026-05-05 07:49 35.07736 139.51831 15222 ft 398 kts 260°
2026-05-05 07:49 35.07187 139.48520 15226 ft 398 kts 260°
2026-05-05 07:49 35.06631 139.45202 15229 ft 398 kts 260°
2026-05-05 07:49 35.06082 139.41929 15224 ft 399 kts 260°
2026-05-05 07:50 35.05524 139.38612 15224 ft 398 kts 260°
2026-05-05 07:50 35.04968 139.35299 15221 ft 398 kts 260°
2026-05-05 07:50 35.04412 139.31991 15223 ft 398 kts 259°
2026-05-05 07:50 35.03855 139.28680 15223 ft 398 kts 259°
2026-05-05 07:51 35.03297 139.25373 15226 ft 397 kts 260°
2026-05-05 07:51 35.02741 139.22059 15223 ft 397 kts 260°
2026-05-05 07:51 35.02199 139.18800 15225 ft 397 kts 260°
2026-05-05 07:51 35.01652 139.15502 15221 ft 397 kts 260°
2026-05-05 07:52 35.01104 139.12198 15223 ft 397 kts 260°
2026-05-05 07:52 35.00554 139.08892 15231 ft 397 kts 259°
2026-05-05 07:52 35.00003 139.05588 15216 ft 397 kts 260°
2026-05-05 07:52 34.99452 139.02291 15238 ft 397 kts 259°
2026-05-05 07:53 34.98901 138.98981 15231 ft 398 kts 260°
2026-05-05 07:53 34.98541 138.95645 15234 ft 397 kts 266°
2026-05-05 07:53 34.98360 138.92322 15227 ft 398 kts 268°
2026-05-05 07:53 34.98214 138.88947 15220 ft 398 kts 268°
2026-05-05 07:54 34.98071 138.85577 15220 ft 399 kts 268°
2026-05-05 07:54 34.97918 138.82168 15657 ft 403 kts 267°
2026-05-05 07:54 34.97752 138.78744 16355 ft 403 kts 267°
2026-05-05 07:54 34.97578 138.75329 17046 ft 404 kts 267°
2026-05-05 07:55 34.97397 138.71898 17640 ft 407 kts 267°
2026-05-05 07:55 34.97214 138.68481 18210 ft 410 kts 267°
2026-05-05 07:55 34.97024 138.64996 18752 ft 413 kts 266°
2026-05-05 07:55 34.96832 138.61487 19290 ft 414 kts 266°
2026-05-05 07:56 34.96639 138.57990 19921 ft 412 kts 266°
2026-05-05 07:56 34.96446 138.54499 20575 ft 411 kts 266°
2026-05-05 07:56 34.96253 138.51028 21178 ft 410 kts 266°
2026-05-05 07:56 34.96061 138.47597 21684 ft 412 kts 266°
2026-05-05 07:57 34.95865 138.44111 22198 ft 412 kts 266°
2026-05-05 07:57 34.95668 138.40618 22706 ft 413 kts 265°
2026-05-05 07:57 34.95470 138.37119 23188 ft 414 kts 265°
2026-05-05 07:57 34.95271 138.33616 23675 ft 414 kts 265°
2026-05-05 07:58 34.95068 138.30105 24130 ft 414 kts 265°
2026-05-05 07:58 34.94864 138.26595 24546 ft 414 kts 265°
2026-05-05 07:58 34.94665 138.23097 24943 ft 413 kts 265°
2026-05-05 07:58 34.94435 138.19604 25269 ft 413 kts 262°
2026-05-05 07:59 34.94041 138.16186 25614 ft 412 kts 263°
2026-05-05 07:59 34.93814 138.12710 26039 ft 410 kts 265°
2026-05-05 07:59 34.93675 138.09236 26428 ft 409 kts 265°
2026-05-05 07:59 34.93550 138.05762 26704 ft 410 kts 265°
2026-05-05 08:00 34.93406 138.02285 26876 ft 411 kts 265°
2026-05-05 08:00 34.93237 137.98805 27107 ft 411 kts 264°
2026-05-05 08:00 34.93039 137.95336 27404 ft 409 kts 263°
2026-05-05 08:00 34.92832 137.91896 27785 ft 405 kts 264°
2026-05-05 08:01 34.92627 137.88494 28244 ft 400 kts 263°
2026-05-05 08:01 34.92425 137.85132 28695 ft 395 kts 263°
2026-05-05 08:01 34.92227 137.81851 29202 ft 390 kts 263°
2026-05-05 08:01 34.92034 137.78569 29597 ft 388 kts 263°
2026-05-05 08:02 34.91846 137.75293 29966 ft 386 kts 263°
2026-05-05 08:02 34.91660 137.72051 30504 ft 379 kts 263°
2026-05-05 08:02 34.91389 137.68907 31035 ft 371 kts 258°
2026-05-05 08:02 34.90841 137.65837 31329 ft 370 kts 254°
2026-05-05 08:03 34.90012 137.62888 31677 ft 366 kts 250°
2026-05-05 08:03 34.89120 137.59992 32044 ft 363 kts 250°
2026-05-05 08:03 34.88240 137.57106 32302 ft 363 kts 250°
2026-05-05 08:03 34.87358 137.54209 32525 ft 364 kts 250°
2026-05-05 08:04 34.86484 137.51322 32869 ft 361 kts 250°
2026-05-05 08:04 34.85623 137.48473 33311 ft 355 kts 250°
2026-05-05 08:04 34.84785 137.45652 33641 ft 353 kts 251°
2026-05-05 08:04 34.83988 137.42874 33933 ft 352 kts 251°
2026-05-05 08:05 34.83192 137.40065 34238 ft 350 kts 251°
2026-05-05 08:05 34.82399 137.37264 34474 ft 349 kts 251°
2026-05-05 08:05 34.81604 137.34463 34641 ft 350 kts 251°
2026-05-05 08:05 34.80804 137.31650 34815 ft 351 kts 251°
2026-05-05 08:06 34.80005 137.28850 35022 ft 350 kts 251°
2026-05-05 08:06 34.79204 137.26048 35224 ft 350 kts 251°
2026-05-05 08:06 34.78403 137.23250 35405 ft 350 kts 251°
2026-05-05 08:06 34.77600 137.20447 35593 ft 350 kts 251°
2026-05-05 08:07 34.76807 137.17684 35786 ft 350 kts 251°
2026-05-05 08:07 34.76010 137.14898 36021 ft 348 kts 251°
2026-05-05 08:07 34.75205 137.12105 36176 ft 350 kts 251°
2026-05-05 08:07 34.74399 137.09309 36328 ft 350 kts 251°
2026-05-05 08:08 34.73595 137.06516 36535 ft 350 kts 251°
2026-05-05 08:08 34.72788 137.03719 36699 ft 350 kts 251°
2026-05-05 08:08 34.71979 137.00920 36860 ft 351 kts 251°
2026-05-05 08:08 34.71113 136.98146 37022 ft 351 kts 246°
2026-05-05 08:09 34.69998 136.95496 37169 ft 353 kts 243°
2026-05-05 08:09 34.68685 136.92966 37326 ft 355 kts 238°
2026-05-05 08:09 34.67180 136.90578 37493 ft 356 kts 237°
2026-05-05 08:09 34.65665 136.88241 37646 ft 357 kts 236°
2026-05-05 08:10 34.64122 136.85878 37800 ft 357 kts 236°
2026-05-05 08:10 34.62580 136.83518 37958 ft 357 kts 236°
2026-05-05 08:10 34.61036 136.81151 38098 ft 356 kts 237°
2026-05-05 08:10 34.59500 136.78794 38182 ft 357 kts 237°
2026-05-05 08:11 34.56418 136.74054 38197 ft 356 kts 236°
2026-05-05 08:11 34.53372 136.69371 38199 ft 355 kts 237°
2026-05-05 08:12 34.50321 136.64682 38199 ft 353 kts 237°
2026-05-05 08:12 34.47274 136.60004 38199 ft 353 kts 237°
2026-05-05 08:13 34.44229 136.55335 38199 ft 352 kts 236°
2026-05-05 08:13 34.41204 136.50701 38196 ft 352 kts 237°
2026-05-05 08:14 34.38117 136.46062 38144 ft 355 kts 236°
2026-05-05 08:14 34.36602 136.43714 38281 ft 354 kts 237°
2026-05-05 08:14 34.35087 136.41347 38206 ft 356 kts 237°
2026-05-05 08:15 34.32003 136.36635 37974 ft 355 kts 237°
2026-05-05 08:15 34.30544 136.34280 38185 ft 349 kts 237°
2026-05-05 08:15 34.29032 136.31966 38217 ft 351 kts 236°
2026-05-05 08:16 34.26007 136.27364 38190 ft 353 kts 235°
2026-05-05 08:16 34.22861 136.22801 38150 ft 352 kts 237°
2026-05-05 08:17 34.20241 136.17916 38226 ft 352 kts 233°
2026-05-05 08:17 34.16930 136.13527 38196 ft 348 kts 234°
2026-05-05 08:18 34.15491 136.11261 38248 ft 333 kts 237°
2026-05-05 08:18 34.13977 136.09125 38296 ft 333 kts 234°
2026-05-05 08:18 34.12501 136.07005 38183 ft 334 kts 236°
2026-05-05 08:18 34.11189 136.04748 37906 ft 324 kts 257°
2026-05-05 08:19 34.09902 135.99568 37874 ft 328 kts 238°
2026-05-05 08:19 34.08230 135.97547 37190 ft 351 kts 226°
2026-05-05 08:19 34.06332 135.95718 36774 ft 341 kts 228°
2026-05-05 08:20 34.04483 135.93887 36660 ft 345 kts 228°
2026-05-05 08:20 34.02769 135.91887 36509 ft 338 kts 232°
2026-05-05 08:20 34.01197 135.89793 36370 ft 339 kts 234°
2026-05-05 08:20 33.99694 135.87634 36292 ft 340 kts 235°
2026-05-05 08:21 33.96739 135.83260 36226 ft 333 kts 236°
2026-05-05 08:21 33.93840 135.78912 36169 ft 332 kts 236°
2026-05-05 08:22 33.90994 135.74532 36192 ft 333 kts 235°
2026-05-05 08:22 33.88123 135.70100 36151 ft 339 kts 234°
2026-05-05 08:23 33.85063 135.65862 36193 ft 335 kts 235°
2026-05-05 08:23 33.82217 135.61542 36211 ft 324 kts 236°
2026-05-05 08:24 33.79375 135.57294 36159 ft 326 kts 235°
2026-05-05 08:24 33.76567 135.52994 36190 ft 328 kts 235°
2026-05-05 08:25 33.73666 135.48774 36177 ft 330 kts 234°
2026-05-05 08:25 33.70757 135.44519 36178 ft 328 kts 235°
2026-05-05 08:26 33.67905 135.40267 36185 ft 326 kts 235°
2026-05-05 08:26 33.65059 135.36035 36184 ft 325 kts 235°
2026-05-05 08:27 33.62232 135.31844 36184 ft 325 kts 235°
2026-05-05 08:27 33.59383 135.27626 36186 ft 325 kts 235°
2026-05-05 08:28 33.56528 135.23406 36188 ft 326 kts 235°
2026-05-05 08:28 33.53646 135.19148 36198 ft 335 kts 235°
2026-05-05 08:29 33.50653 135.14731 36196 ft 344 kts 235°
2026-05-05 08:30 33.46126 135.08070 36169 ft 345 kts 234°
2026-05-05 08:30 33.43094 135.03616 36185 ft 345 kts 234°
2026-05-05 08:31 33.40059 134.99156 36201 ft 345 kts 234°
2026-05-05 08:31 33.37037 134.94696 36194 ft 345 kts 234°
2026-05-05 08:32 33.34028 134.90255 36191 ft 345 kts 234°
2026-05-05 08:32 33.31498 134.86525 36191 ft 345 kts 234°
2026-05-05 08:32 33.29521 134.83617 36028 ft 334 kts 234°
2026-05-05 08:33 33.28537 134.82171 35784 ft 330 kts 234°
2026-05-05 08:33 33.27118 134.80084 35355 ft 327 kts 234°
2026-05-05 08:33 33.25685 134.77975 34801 ft 327 kts 234°
2026-05-05 08:33 33.24248 134.75860 34214 ft 328 kts 233°
2026-05-05 08:34 33.22803 134.73737 33504 ft 330 kts 234°
2026-05-05 08:34 33.21338 134.71585 32620 ft 337 kts 234°
2026-05-05 08:34 33.19838 134.69383 31652 ft 345 kts 235°
2026-05-05 08:34 33.18315 134.67123 30715 ft 352 kts 238°
2026-05-05 08:35 33.17021 134.64678 29818 ft 354 kts 244°
2026-05-05 08:35 33.15901 134.62042 28764 ft 358 kts 248°
2026-05-05 08:35 33.15031 134.59224 27610 ft 366 kts 253°
2026-05-05 08:35 33.14299 134.56269 26640 ft 373 kts 254°
2026-05-05 08:36 33.13590 134.53339 26487 ft 367 kts 254°
2026-05-05 08:36 33.12871 134.50369 26381 ft 379 kts 253°
2026-05-05 08:36 33.12123 134.47301 26262 ft 389 kts 253°
2026-05-05 08:36 33.11357 134.44179 26211 ft 394 kts 253°
2026-05-05 08:37 33.10583 134.41042 26194 ft 393 kts 253°
2026-05-05 08:37 33.09817 134.37949 26190 ft 394 kts 253°
2026-05-05 08:37 33.09039 134.34814 26186 ft 394 kts 253°
2026-05-05 08:37 33.08260 134.31679 26186 ft 393 kts 253°
2026-05-05 08:38 33.07482 134.28547 26187 ft 393 kts 253°
2026-05-05 08:38 33.06702 134.25419 26189 ft 393 kts 253°
2026-05-05 08:38 33.05925 134.22294 26205 ft 393 kts 253°
2026-05-05 08:38 33.05172 134.19208 26199 ft 393 kts 253°
2026-05-05 08:39 33.04417 134.16081 26192 ft 392 kts 253°
2026-05-05 08:39 33.03663 134.12951 26175 ft 392 kts 253°
2026-05-05 08:39 33.02908 134.09824 26182 ft 393 kts 253°
2026-05-05 08:39 33.02151 134.06694 26188 ft 393 kts 253°
2026-05-05 08:40 33.01390 134.03560 26191 ft 393 kts 253°
2026-05-05 08:40 33.00628 134.00422 26204 ft 394 kts 253°
2026-05-05 08:40 32.99865 133.97288 26194 ft 394 kts 253°
2026-05-05 08:40 32.99098 133.94145 26189 ft 394 kts 253°
2026-05-05 08:41 32.98344 133.91053 26186 ft 394 kts 253°
2026-05-05 08:41 32.97576 133.87914 26187 ft 394 kts 253°
2026-05-05 08:41 32.96810 133.84781 26177 ft 396 kts 253°
2026-05-05 08:41 32.96032 133.81606 26202 ft 402 kts 253°
2026-05-05 08:42 32.95242 133.78385 26196 ft 407 kts 253°
2026-05-05 08:42 32.94443 133.75134 26190 ft 409 kts 253°
2026-05-05 08:42 32.93647 133.71895 26182 ft 407 kts 253°
2026-05-05 08:42 32.92852 133.68664 26184 ft 406 kts 253°
2026-05-05 08:43 32.92057 133.65438 26187 ft 406 kts 253°
2026-05-05 08:43 32.91263 133.62215 26202 ft 405 kts 253°
2026-05-05 08:43 32.90478 133.59039 26193 ft 404 kts 253°
2026-05-05 08:43 32.89682 133.55825 26178 ft 405 kts 253°
2026-05-05 08:44 32.88885 133.52616 26182 ft 405 kts 253°
2026-05-05 08:44 32.88082 133.49392 26188 ft 406 kts 253°
2026-05-05 08:44 32.87279 133.46171 26190 ft 406 kts 253°
2026-05-05 08:44 32.86474 133.42946 26203 ft 407 kts 253°
2026-05-05 08:45 32.85667 133.39713 26193 ft 407 kts 253°
2026-05-05 08:45 32.84857 133.36473 26188 ft 408 kts 253°
2026-05-05 08:45 32.84055 133.33270 26183 ft 407 kts 253°
2026-05-05 08:45 32.83247 133.30043 26157 ft 407 kts 253°
2026-05-05 08:46 32.82437 133.26815 26175 ft 407 kts 253°
2026-05-05 08:46 32.81627 133.23588 26178 ft 408 kts 253°
2026-05-05 08:46 32.80814 133.20355 26197 ft 408 kts 253°
2026-05-05 08:46 32.80001 133.17124 26185 ft 408 kts 253°
2026-05-05 08:47 32.79187 133.13893 26182 ft 408 kts 253°
2026-05-05 08:47 32.78372 133.10660 26178 ft 408 kts 253°
2026-05-05 08:47 32.77567 133.07473 26178 ft 408 kts 253°
2026-05-05 08:47 32.76749 133.04239 26180 ft 408 kts 253°
2026-05-05 08:48 32.75894 133.01024 26176 ft 407 kts 250°
2026-05-05 08:48 32.74756 132.97944 26180 ft 408 kts 243°
2026-05-05 08:48 32.73276 132.95043 26182 ft 409 kts 239°
2026-05-05 08:48 32.71777 132.92177 26179 ft 408 kts 240°
2026-05-05 08:49 32.70290 132.89298 26180 ft 408 kts 240°
2026-05-05 08:49 32.68831 132.86453 26178 ft 408 kts 240°
2026-05-05 08:49 32.67359 132.83575 26178 ft 408 kts 240°
2026-05-05 08:49 32.65888 132.80697 26178 ft 408 kts 240°
2026-05-05 08:50 32.64410 132.77807 26176 ft 408 kts 240°
2026-05-05 08:50 32.62933 132.74924 26177 ft 408 kts 240°
2026-05-05 08:50 32.61457 132.72043 26178 ft 408 kts 240°
2026-05-05 08:50 32.59978 132.69160 26175 ft 409 kts 240°
2026-05-05 08:51 32.58501 132.66282 26172 ft 409 kts 240°
2026-05-05 08:51 32.57040 132.63440 26174 ft 409 kts 240°
2026-05-05 08:51 32.55560 132.60562 26188 ft 409 kts 240°
2026-05-05 08:51 32.54074 132.57676 26152 ft 409 kts 240°
2026-05-05 08:52 32.52595 132.54804 26163 ft 409 kts 240°
2026-05-05 08:52 32.51111 132.51925 26168 ft 409 kts 240°
2026-05-05 08:52 32.49627 132.49049 26173 ft 409 kts 240°
2026-05-05 08:52 32.48142 132.46173 26173 ft 409 kts 240°
2026-05-05 08:53 32.46655 132.43295 26170 ft 410 kts 240°
2026-05-05 08:53 32.45167 132.40417 26186 ft 410 kts 240°
2026-05-05 08:53 32.43686 132.37555 26177 ft 404 kts 240°
2026-05-05 08:53 32.42217 132.34718 26156 ft 404 kts 240°
2026-05-05 08:54 32.40759 132.31902 26170 ft 408 kts 240°
2026-05-05 08:54 32.39266 132.29021 26183 ft 411 kts 240°
2026-05-05 08:54 32.37769 132.26136 26169 ft 411 kts 240°
2026-05-05 08:54 32.36274 132.23260 26166 ft 410 kts 240°
2026-05-05 08:55 32.34780 132.20387 26169 ft 410 kts 240°
2026-05-05 08:55 32.33284 132.17513 26178 ft 406 kts 240°
2026-05-05 08:55 32.31808 132.14679 26152 ft 404 kts 240°
2026-05-05 08:55 32.30351 132.11883 26105 ft 391 kts 240°
2026-05-05 08:56 32.28951 132.09202 25828 ft 377 kts 240°
2026-05-05 08:56 32.27603 132.06617 25273 ft 373 kts 240°
2026-05-05 08:56 32.26238 132.03999 24493 ft 375 kts 240°
2026-05-05 08:56 32.24866 132.01367 23708 ft 377 kts 240°
2026-05-05 08:57 32.23484 131.98720 22889 ft 378 kts 240°
2026-05-05 08:57 32.22113 131.96098 22360 ft 371 kts 240°
2026-05-05 08:57 32.20765 131.93521 21742 ft 368 kts 240°
2026-05-05 08:57 32.19413 131.90939 20908 ft 370 kts 239°
2026-05-05 08:58 32.18053 131.88341 20136 ft 373 kts 239°
2026-05-05 08:58 32.16687 131.85736 19477 ft 372 kts 239°
2026-05-05 08:58 32.15340 131.83169 18878 ft 371 kts 239°
2026-05-05 08:58 32.13984 131.80586 18239 ft 370 kts 239°
2026-05-05 08:59 32.12609 131.77968 17536 ft 370 kts 238°
2026-05-05 08:59 32.11273 131.75424 16855 ft 370 kts 238°
2026-05-05 08:59 32.09920 131.72848 16388 ft 364 kts 238°
2026-05-05 08:59 32.08617 131.70371 16284 ft 344 kts 238°
2026-05-05 09:00 32.07394 131.68045 16120 ft 323 kts 237°
2026-05-05 09:00 32.06238 131.65848 15867 ft 308 kts 238°
2026-05-05 09:00 32.05126 131.63737 15575 ft 297 kts 237°
2026-05-05 09:00 32.04059 131.61712 15312 ft 285 kts 237°
2026-05-05 09:01 32.03029 131.59759 15059 ft 276 kts 237°
2026-05-05 09:01 32.02037 131.57879 14822 ft 272 kts 237°
2026-05-05 09:01 32.01031 131.55975 14596 ft 275 kts 237°
2026-05-05 09:01 32.00016 131.54053 14367 ft 278 kts 237°
2026-05-05 09:02 31.98990 131.52111 14142 ft 280 kts 236°
2026-05-05 09:02 31.97954 131.50151 13904 ft 283 kts 236°
2026-05-05 09:02 31.96911 131.48180 13644 ft 284 kts 236°
2026-05-05 09:02 31.95869 131.46211 13382 ft 282 kts 236°
2026-05-05 09:03 31.94987 131.44165 13092 ft 281 kts 254°
2026-05-05 09:03 31.94839 131.41875 12867 ft 280 kts 271°
2026-05-05 09:03 31.95017 131.39597 12612 ft 280 kts 275°
2026-05-05 09:03 31.95261 131.37356 12364 ft 279 kts 275°
2026-05-05 09:04 31.95516 131.35089 12123 ft 279 kts 275°
2026-05-05 09:04 31.95763 131.32826 11880 ft 278 kts 275°
2026-05-05 09:04 31.96002 131.30569 11634 ft 277 kts 275°
2026-05-05 09:04 31.96234 131.28313 11396 ft 276 kts 274°
2026-05-05 09:05 31.96460 131.26070 11154 ft 275 kts 274°
2026-05-05 09:05 31.96682 131.23836 10936 ft 274 kts 274°
2026-05-05 09:05 31.96901 131.21613 10700 ft 272 kts 274°
2026-05-05 09:05 31.97116 131.19426 10467 ft 271 kts 274°
2026-05-05 09:06 31.97331 131.17222 10228 ft 271 kts 274°
2026-05-05 09:06 31.97546 131.15006 10101 ft 271 kts 274°
2026-05-05 09:06 31.97763 131.12765 10067 ft 277 kts 274°
2026-05-05 09:06 31.97981 131.10518 10034 ft 275 kts 273°
2026-05-05 09:07 31.98194 131.08319 10023 ft 271 kts 274°
2026-05-05 09:07 31.98405 131.06120 10023 ft 270 kts 274°
2026-05-05 09:07 31.98617 131.03913 10033 ft 271 kts 273°
2026-05-05 09:07 31.98827 131.01702 10028 ft 272 kts 274°
2026-05-05 09:08 31.99038 130.99491 9968 ft 269 kts 274°
2026-05-05 09:08 31.99243 130.97339 9889 ft 259 kts 273°
2026-05-05 09:08 31.99441 130.95267 9822 ft 250 kts 274°
2026-05-05 09:08 31.99632 130.93245 9606 ft 247 kts 273°
2026-05-05 09:09 31.99822 130.91224 9318 ft 248 kts 273°
2026-05-05 09:09 32.00012 130.89195 9013 ft 249 kts 274°
2026-05-05 09:09 32.00201 130.87188 8717 ft 250 kts 274°
2026-05-05 09:09 32.00392 130.85149 8415 ft 251 kts 274°
2026-05-05 09:10 32.00585 130.83097 8116 ft 251 kts 274°
2026-05-05 09:10 32.00776 130.81050 7824 ft 251 kts 274°
2026-05-05 09:10 32.00968 130.78999 7452 ft 256 kts 274°
2026-05-05 09:10 32.01167 130.76860 7139 ft 264 kts 275°
2026-05-05 09:11 32.01364 130.74754 7033 ft 259 kts 274°
2026-05-05 09:11 32.01560 130.72652 6752 ft 258 kts 274°
2026-05-05 09:11 32.01425 130.70533 6271 ft 261 kts 246°
2026-05-05 09:11 32.00578 130.68679 6118 ft 252 kts 237°
2026-05-05 09:12 31.99704 130.66927 6025 ft 244 kts 237°
2026-05-05 09:12 31.98852 130.65214 5806 ft 238 kts 237°
2026-05-05 09:12 31.97992 130.63537 5316 ft 240 kts 230°
2026-05-05 09:12 31.96700 130.62365 4804 ft 235 kts 197°
2026-05-05 09:13 31.95111 130.62232 4283 ft 231 kts 163°
2026-05-05 09:13 31.93663 130.62957 3853 ft 227 kts 152°
2026-05-05 09:13 31.92321 130.63827 3547 ft 213 kts 149°
2026-05-05 09:13 31.91077 130.64677 3236 ft 200 kts 149°
2026-05-05 09:14 31.89910 130.65470 2951 ft 186 kts 149°
2026-05-05 09:14 31.88820 130.66206 2728 ft 177 kts 149°
2026-05-05 09:14 31.87772 130.66915 2445 ft 172 kts 147°
2026-05-05 09:14 31.86745 130.67609 2251 ft 166 kts 148°
2026-05-05 09:15 31.85774 130.68267 1999 ft 158 kts 148°
2026-05-05 09:15 31.84840 130.68898 1799 ft 151 kts 147°
2026-05-05 09:15 31.83931 130.69513 1595 ft 155 kts 147°
2026-05-05 09:15 31.82989 130.70152 1336 ft 159 kts 150°
2026-05-05 09:16 31.82041 130.70792 1149 ft 155 kts 149°
2026-05-05 09:16 31.81179 130.71387 928 ft 132 kts 152°
2026-05-05 09:16 31.80468 130.71855 906 ft 95 kts 151°
2026-05-05 09:16 31.80088 130.72105 897 ft 34 kts 149°
2026-05-05 09:17 31.79891 130.72243 892 ft 32 kts 149°
2026-05-05 09:17 31.79705 130.72364 888 ft 30 kts 149°
2026-05-05 09:17 31.79531 130.72430 885 ft 24 kts 211°
2026-05-05 09:17 31.79494 130.72307 886 ft 14 kts 283°
2026-05-05 09:18 31.79567 130.72234 887 ft 14 kts 329°
2026-05-05 09:18 31.79649 130.72179 889 ft 13 kts 330°
2026-05-05 09:18 31.79728 130.72127 890 ft 13 kts 330°
2026-05-05 09:18 31.79804 130.72075 892 ft 12 kts 329°
2026-05-05 09:19 31.79878 130.72023 893 ft 12 kts 330°
2026-05-05 09:19 31.79927 130.71992 894 ft 12 kts 332°
2026-05-05 09:19 31.80023 130.71929 897 ft 12 kts 327°
2026-05-05 09:19 31.80067 130.71896 897 ft 11 kts 332°
2026-05-05 09:20 31.80135 130.71851 899 ft 11 kts 330°
2026-05-05 09:20 31.80222 130.71792 901 ft 11 kts 329°
2026-05-05 09:20 31.80262 130.71759 901 ft 10 kts 302°
2026-05-05 09:20 31.80242 130.71681 903 ft 10 kts 238°
2026-05-05 09:21 31.80212 130.71616 903 ft 5 kts 241°
2026-05-05 09:21 31.80207 130.71605 901 ft 0 kts 241°